Location: Coburg
(50.2594°N, 10.9638°E)
Time: 13:12:25
(UTC+00:00)

Daily predictions for brighter satellites

Satellite Brightness Start Highest point End
(mag) Time Altitude Azimuth Time Altitude Azimuth Time Altitude Azimuth
IRS-1A Rocket 4.4 18:06:17 10° SSE 18:11:50 61° ENE 18:17:33 10° N
Cosmos 1553 Rocket 4.0 18:06:56 10° S 18:13:00 85° E 18:19:09 10° N
Cosmos 2219 Rocket 3.4 18:07:39 10° SW 18:13:06 47° NW 18:18:35 10° NNE
STARLINK-1084 3.8 18:10:30 10° WNW 18:14:39 68° NNE 18:18:47 10° E
STARLINK-1083 4.0 18:10:48 10° WNW 18:14:50 61° SSW 18:18:51 10° SE
STARLINK-1237 4.2 18:11:16 10° SSW 18:15:02 37° SE 18:18:47 10° ENE
KORONAS-FOTON 4.0 18:12:41 10° NNW 18:16:33 76° W 18:20:20 10° S
Cosmos 1943 Rocket 2.9 18:12:13 10° NNW 18:17:18 35° NE 18:22:22 10° ESE
STARLINK-1209 2.8 18:14:48 10° SW 18:17:42 63° SSE 18:20:37 10° ENE
Cosmos 1939 Rocket 4.3 18:14:33 10° S 18:18:19 42° W 18:22:04 10° NNW
ATLAS 2AS CENTAUR R/B 4.0 18:12:06 10° NW 18:19:11 34° NNE 18:25:51 10° E
STARLINK-1125 4.1 18:15:23 10° WNW 18:19:24 57° SSW 18:23:23 10° SE
STARLINK-1098 3.8 18:15:30 10° WNW 18:19:39 70° NNE 18:23:47 10° E
STARLINK-1202 4.1 18:15:56 10° SW 18:19:44 40° SE 18:23:33 10° ENE
STARLINK-1228 2.7 18:17:01 10° WSW 18:19:51 64° SSE 18:22:44 10° ENE
SL-14 R/B 3.6 18:16:38 10° N 18:20:37 50° ENE 18:24:33 10° SSE
STARLINK-1109 4.1 18:20:08 10° WNW 18:24:07 54° SSW 18:28:07 10° SE
Cosmos 1980 3.9 18:18:39 10° SSW 18:24:21 84° WNW 18:30:05 10° NNE
SL-8 R/B 3.8 18:19:52 10° W 18:24:38 72° S 18:29:24 10° E
STARLINK-1123 3.7 18:20:29 10° WNW 18:24:38 72° NNE 18:28:47 10° E
ERBS 2.9 18:23:12 10° WSW 18:26:32 56° NNW 18:29:53 10° NE
STARLINK-1246 4.0 18:22:53 10° SW 18:26:47 44° SSE 18:30:42 10° ENE
STARLINK-1091 4.2 18:24:58 10° WNW 18:28:56 51° SSW 18:32:54 10° SE
Cosmos 2315 Rocket 4.3 18:23:19 10° SSE 18:29:15 46° E 18:35:17 10° NNE
Cosmos 1766 3.3 18:25:31 10° S 18:29:31 87° W 18:33:31 10° N
STARLINK-1097 3.7 18:25:27 10° WNW 18:29:36 75° NNE 18:33:37 11° ESE
ADEOS Rocket 3.5 18:23:39 10° NNE 18:30:34 73° WNW 18:36:43 10° SSW
USA 234 3.9 18:25:09 10° ENE 18:30:58 33° SE 18:36:44 10° SSW
STARLINK-67 2.4 18:29:25 10° WSW 18:32:00 82° NNW 18:34:36 10° ENE
STARLINK-1201 3.0 18:29:16 10° SW 18:32:30 63° SSE 18:35:45 10° ENE
Cosmos 1626 2.1 18:29:28 10° N 18:33:10 64° ENE 18:36:50 10° SSE
STARLINK-1224 3.9 18:30:03 10° SW 18:33:58 48° SSE 18:37:54 10° ENE
Meteor 2-8 Rocket 4.4 18:28:12 10° S 18:34:18 72° E 18:40:25 10° NNE
STARLINK-1099 3.7 18:30:27 10° WNW 18:34:36 77° NNE 18:38:25 12° ESE
STARLINK-1203 3.7 18:31:42 10° SW 18:35:35 52° SSE 18:39:28 10° ENE
H-2A R/B 2.1 18:30:37 10° SSE 18:35:54 79° ENE 18:41:06 10° NNW
HJ-1C 4.4 18:33:46 10° S 18:37:01 49° W 18:40:19 10° NNW
SL-16 R/B 2.4 18:32:52 10° S 18:38:19 50° ESE 18:43:46 10° NE
STARLINK-1225 3.8 18:34:38 10° SW 18:38:35 51° SSE 18:42:34 10° ENE
STARLINK-1072 4.4 18:35:18 10° WNW 18:39:09 43° SSW 18:42:59 10° SE
STARLINK-1104 3.6 18:35:26 10° WNW 18:39:35 80° NNE 18:43:12 14° ESE
TSX-5 4.3 18:34:30 10° NNW 18:40:12 74° NE 18:44:31 10° SE
SL-08 RB Rocket 3.9 18:36:08 10° SE 18:40:31 53° ENE 18:45:00 10° N
Cosmos 2333 Rocket 4.1 18:35:45 10° WSW 18:40:50 32° NW 18:45:55 10° NNE
Resurs 01 Rocket 2.7 18:38:54 11° ESE 18:42:21 27° ENE 18:46:05 10° N
STARLINK-1230 3.7 18:39:21 10° SW 18:43:19 55° SSE 18:47:19 10° ENE
STARLINK-1144 3.6 18:40:25 10° WNW 18:44:35 83° NNE 18:47:59 15° ESE
STARLINK-1233 2.8 18:42:46 10° WSW 18:45:54 78° SSE 18:48:52 11° ENE
STARLINK-1212 2.8 18:43:15 10° WSW 18:46:22 78° SSE 18:49:17 12° ENE
FREGAT/IRIS 2.4 18:43:50 10° S 18:46:33 81° WSW 18:49:17 10° NNW
STARLINK-1105 2.8 18:43:40 10° WSW 18:46:48 79° SSE 18:49:44 12° ENE
Cosmos 1302 Rocket 4.0 18:41:43 10° NNW 18:47:01 87° ENE 18:52:19 10° SSE
STARLINK-1206 2.8 18:44:10 10° WSW 18:47:17 79° SSE 18:50:09 12° ENE
STARLINK-1247 2.8 18:44:36 10° WSW 18:47:43 79° SSE 18:50:34 12° ENE
STARLINK-1243 3.7 18:44:08 10° SW 18:48:08 58° SSE 18:52:09 10° ENE
STARLINK-1227 2.8 18:45:01 10° WSW 18:48:09 80° SSE 18:51:02 12° ENE
STARLINK-1218 2.8 18:45:30 10° WSW 18:48:37 80° SSE 18:51:26 12° ENE
Abrixas rocket 4.0 18:47:24 10° S 18:48:59 14° SSE 18:49:06 14° SE
STARLINK-1226 2.8 18:45:57 10° WSW 18:49:04 81° SSE 18:51:53 12° ENE
STARLINK-1254 2.8 18:46:22 10° WSW 18:49:30 81° SSE 18:52:20 12° ENE
STARLINK-1103 3.6 18:45:23 10° WNW 18:49:33 86° NNE 18:52:45 17° ESE
SeaSat 1 3.9 18:45:19 10° NNE 18:49:56 40° NW 18:54:31 10° WSW
STARLINK-1215 2.8 18:46:52 10° WSW 18:49:59 82° SSE 18:52:44 13° ENE
Cosmos 1709 Rocket 4.0 18:43:42 10° N 18:49:59 86° E 18:56:08 10° S
STARLINK-1231 2.8 18:47:18 10° WSW 18:50:25 82° SSE 18:53:10 13° ENE
Cosmos 1953 3.3 18:47:58 10° SE 18:51:17 26° E 18:54:37 10° NNE
STARLINK-1232 2.8 18:48:13 10° WSW 18:51:19 83° SSE 18:54:03 13° ENE
STARLINK-1217 2.8 18:48:39 10° WSW 18:51:46 84° SSE 18:54:28 13° ENE
STARLINK-1208 2.8 18:49:04 10° WSW 18:52:12 84° SSE 18:54:56 13° ENE
STARLINK-1229 2.8 18:49:33 10° WSW 18:52:40 84° SSE 18:55:20 13° ENE
STARLINK-1236 3.6 18:48:53 10° SW 18:52:54 62° SSE 18:56:46 11° ENE
STARLINK-1271 2.8 18:50:00 10° WSW 18:53:07 85° SSE 18:55:47 14° ENE
STARLINK-1270 2.8 18:50:28 10° WSW 18:53:35 85° SSE 18:56:13 14° ENE
STARLINK-1154 2.8 18:50:54 10° WSW 18:54:02 86° SSE 18:56:39 14° ENE
STARLINK-1101 3.6 18:50:22 10° WNW 18:54:32 90° NNE 18:57:32 18° ESE
STARLINK-1197 2.8 18:51:49 10° WSW 18:54:56 87° SSE 18:57:31 14° ENE
MONITOR-E 4.2 18:52:27 10° S 18:55:04 64° WSW 18:57:43 10° NNW
Cosmos 1269 Rocket 4.0 18:49:53 10° SSW 18:55:10 82° ESE 19:00:30 10° NNE
STARLINK-1189 2.8 18:52:16 10° WSW 18:55:23 87° SSE 18:57:57 14° ENE
STARLINK-1187 2.8 18:53:06 10° WSW 18:56:14 86° NNW 18:58:50 14° ENE
STARLINK-1188 2.8 18:53:10 10° WSW 18:56:17 88° SSE 18:58:49 15° ENE
STARLINK-1198 2.8 18:53:11 10° WSW 18:56:17 88° SSE 18:58:49 15° ENE
STARLINK-1235 2.9 18:53:48 10° WSW 18:56:57 80° NNW 18:59:33 14° ENE
CZ-4C R/B 4.2 18:52:23 10° WNW 18:57:21 29° NNW 19:03:08 10° NE
STARLINK-1199 2.8 18:55:06 10° WSW 18:58:15 90° E 19:00:44 15° ENE
STARLINK-1191 2.8 18:55:33 10° WSW 18:58:41 90° WNW 19:01:09 15° ENE
STARLINK-1210 2.8 18:56:00 10° WSW 18:59:09 89° N 19:01:36 16° ENE
STARLINK-1102 3.6 18:55:20 10° WNW 18:59:30 87° SSW 19:02:19 20° ESE
STARLINK-1221 2.8 18:56:27 10° WSW 18:59:36 89° N 19:02:02 16° ENE
STARLINK-1219 2.8 18:56:54 10° WSW 19:00:03 88° N 19:02:29 16° ENE
STARLINK-1222 2.8 18:57:21 10° WSW 19:00:30 88° NNW 19:02:54 16° ENE
ISS -3.8 18:57:20 10° WNW 19:00:43 89° NNE 19:02:41 23° ESE
STARLINK-1211 2.8 18:57:49 10° WSW 19:00:57 88° NNW 19:03:20 16° ENE
STARLINK-1214 2.8 18:58:15 10° WSW 19:01:24 87° NNW 19:03:45 17° ENE
Cosmos 2297 4.2 18:55:51 10° NW 19:01:27 61° WSW 19:07:03 10° SSE
STARLINK-1245 2.8 18:58:44 10° WSW 19:01:52 87° NNW 19:04:10 17° ENE
STARLINK-1238 2.8 18:59:07 10° WSW 19:02:16 86° NNW 19:04:37 17° ENE
STARLINK-1269 3.5 18:58:40 10° WSW 19:02:42 69° SSE 19:06:12 14° ENE
Cosmos 2074 Rocket 4.3 18:56:45 10° N 19:02:49 48° ENE 19:08:16 13° SE
Cosmos 1455 Rocket 3.7 18:58:33 10° SSW 19:02:51 60° WNW 19:07:12 10° N
Cosmos 2251 Rocket 4.2 18:58:13 10° SSE 19:02:53 31° E 19:07:36 10° NE
STARLINK-1205 2.8 19:00:02 10° WSW 19:03:10 85° NNW 19:05:26 17° ENE
BREEZE-M DEB (TANK) 3.8 18:55:17 10° W 19:03:16 82° S 19:05:19 22° ESE
STARLINK-1204 2.8 19:00:32 10° WSW 19:03:39 85° NNW 19:05:53 18° ENE
Cosmos 2084 Rocket 3.6 18:59:29 10° NW 19:03:57 71° NE 19:06:58 20° SE
STARLINK-1111 3.6 19:00:20 10° WNW 19:04:30 83° SSW 19:07:06 22° ESE
STARLINK-1200 3.5 19:03:27 10° WSW 19:07:31 73° SSE 19:10:50 15° ENE
Cosmos 2237 Rocket 3.3 19:02:31 10° SW 19:07:56 47° NW 19:13:24 10° NNE
CZ-2C R/B 3.1 19:03:21 10° NNE 19:08:10 37° E 19:12:56 10° SSE
Cosmos 1626 Rocket 3.7 19:04:28 10° NNW 19:08:54 78° W 19:13:15 10° S
STARLINK-1073 3.6 19:05:19 10° WNW 19:09:29 79° SSW 19:11:53 24° ESE
STARLINK-1192 3.5 19:08:11 10° WSW 19:12:16 77° SSE 19:15:24 17° ENE
STARLINK-1121 3.6 19:10:17 10° WNW 19:14:26 75° SSW 19:16:39 26° SE
Cosmos 292 Rocket 3.8 19:10:32 10° NNW 19:15:20 68° ENE 19:18:32 21° SE
ARGOS 3.7 19:11:03 10° S 19:16:23 60° WSW 19:21:44 10° NNW
Cosmos 1602 Rocket 3.6 19:12:25 10° NNW 19:16:55 83° W 19:21:20 10° S
STARLINK-1244 3.5 19:13:06 10° WSW 19:17:12 81° SSE 19:20:08 18° ENE
Cosmos 1656 Rocket 4.4 19:12:22 10° NNW 19:17:41 38° NE 19:20:40 22° ESE
IRIDIUM 104 4.3 19:13:01 10° N 19:18:16 72° E 19:23:28 10° S
STARLINK-1106 3.7 19:15:15 10° WNW 19:19:23 72° SSW 19:21:25 29° SE
STARLINK-1138 3.5 19:17:41 10° WSW 19:21:48 84° SSE 19:24:34 20° ENE
MOS 1 Rocket 3.7 19:17:30 10° NNE 19:22:35 51° E 19:27:49 10° S
STARLINK-1234 3.1 19:19:47 10° W 19:22:44 60° NNW 19:24:04 28° ENE
USA 186 3.8 19:20:40 10° SSW 19:23:44 30° W 19:26:46 10° NNW
STARLINK-1112 3.7 19:20:16 10° WNW 19:24:23 68° SSW 19:26:14 31° SE
STARLINK-1143 3.5 19:22:35 10° WSW 19:26:41 88° SSE 19:29:16 22° ENE
MetOp-A 4.2 19:21:39 10° SSE 19:27:00 82° WSW 19:32:25 10° NNW
IRIDIUM 114 4.3 19:22:10 10° N 19:27:26 84° E 19:32:39 10° S
COSMOS 2455 4.2 19:23:26 10° NNW 19:28:31 27° NNE 19:32:01 16° ENE
CZ-2C R/B 4.1 19:24:07 10° S 19:28:53 42° W 19:33:30 10° NNW
STARLINK-1128 3.8 19:25:15 10° WNW 19:29:21 64° SSW 19:31:01 33° SE
Cosmos 1437 2.7 19:28:18 10° N 19:31:18 50° ENE 19:31:24 50° E
Cosmos 1470 3.4 19:28:37 10° SSW 19:32:26 57° WNW 19:36:18 10° N
Cosmos 1726 Rocket 4.3 19:33:41 32° E 19:33:57 32° E 19:37:53 10° NNE
STARLINK-1113 3.8 19:30:14 10° WNW 19:34:19 60° SSW 19:35:47 36° SE
STARLINK-1241 3.5 19:30:57 10° WSW 19:35:01 86° NNW 19:37:13 26° ENE
SPOT 3 Rocket 3.9 19:30:20 10° S 19:35:30 64° WSW 19:40:43 10° NNW
Cosmos 1825 Rocket 3.5 19:31:34 10° N 19:35:59 65° ENE 19:37:53 32° SSE
IRIDIUM 103 4.4 19:31:21 10° N 19:36:37 82° W 19:41:50 10° S
NOSS 3-4 (A) 4.2 19:31:58 10° NW 19:38:32 51° NE 19:42:42 25° E
NOSS 3-4 (C) 4.2 19:32:04 10° NW 19:38:37 50° NE 19:42:48 25° E
STARLINK-1119 3.9 19:35:13 10° WNW 19:39:17 56° SSW 19:40:34 38° SSE
STARLINK-1239 3.5 19:35:52 10° WSW 19:39:56 83° NNW 19:41:56 29° ENE
Cosmos 2369 Rocket 2.2 19:34:13 10° NNW 19:39:57 88° WSW 19:43:14 27° SSE
Cosmos 1726 2.0 19:42:57 40° SSE 19:44:06 67° E 19:47:50 10° NNE
STARLINK-1114 4.0 19:40:14 10° WNW 19:44:17 53° SSW 19:45:24 40° SSE
STARLINK-1240 3.6 19:40:36 10° WSW 19:44:40 80° NNW 19:46:28 32° ENE
Aureole 2 Rocket 2.6 19:41:29 10° NNW 19:44:59 68° WSW 19:45:56 43° S
Cosmos 1758 Rocket 3.5 19:41:22 10° N 19:45:47 87° W 19:47:54 30° S
Cosmos 2263 4.1 19:40:21 10° NNW 19:46:00 79° ENE 19:48:35 33° SE
Cosmos 1758 4.4 19:42:31 10° SSW 19:46:28 46° WNW 19:50:26 10° N
SAR-Lupe-2 4.0 19:44:34 10° NNE 19:47:28 43° ENE 19:47:28 43° ENE
Cosmos 1908 4.1 19:48:57 34° ENE 19:48:57 34° ENE 19:51:47 10° NNE
CZ-2C R/B 4.2 19:43:31 10° N 19:48:15 65° WNW 19:52:55 10° SSW
STARLINK-1130 (DARKSAT) 4.1 19:45:13 10° WNW 19:49:14 50° SSW 19:50:10 41° S
STARLINK-1216 3.6 19:45:21 10° WSW 19:49:25 77° NNW 19:51:03 35° ENE
NOSS 3-3 (A) 4.1 19:44:00 10° SSW 19:49:37 49° ESE 19:55:57 10° NE
NOSS 3-3 (C) 4.1 19:44:07 10° SSW 19:49:44 49° ESE 19:56:02 10° NE
Meteor 2-17 Rocket 4.4 19:44:45 10° N 19:50:51 64° ENE 19:53:45 32° SSE
ATLAS CENTAUR R/B 4.2 19:50:22 10° NNW 19:51:39 11° N 19:52:53 10° NNE
Cosmos 1953 Rocket 3.5 19:47:50 10° N 19:52:17 65° ENE 19:53:22 47° SE
STARLINK-1209 3.4 19:49:52 10° W 19:52:45 48° N 19:52:50 48° N
STARLINK-1084 4.1 19:50:11 10° WNW 19:54:11 47° SSW 19:54:56 41° S
STARLINK-1237 3.6 19:50:08 10° WSW 19:54:11 75° NNW 19:55:38 38° ENE
Terra 3.2 19:53:53 23° ENE 19:54:13 24° ENE 19:57:59 10° N
Cosmos 2184 Rocket 4.1 19:48:28 10° NNW 19:54:50 81° W 19:59:37 18° S
STARLINK-1228 3.5 19:52:05 10° W 19:54:50 47° N 19:54:50 47° N
Spot 2 Rocket 3.4 19:55:41 39° SE 19:57:33 72° ENE 20:02:39 10° NNW
STARLINK-1202 3.7 19:54:53 10° W 19:58:56 72° NNW 20:00:12 42° ENE
STARLINK-1098 4.2 19:55:12 10° WNW 19:59:09 44° SW 19:59:43 41° S
Cosmos 1606 Rocket 3.4 19:59:08 46° SSE 20:00:20 71° E 20:04:47 10° NNE
Cosmos 1943 Rocket 2.9 19:55:55 10° NW 20:01:14 49° WSW 20:04:35 22° S
SPOT 1/Viking Rocket 3.8 20:00:50 43° ESE 20:02:04 53° ENE 20:07:08 10° N
ERBS 4.2 20:00:27 10° WNW 20:03:22 26° N 20:04:36 21° NNE
STARLINK-1123 4.3 20:00:11 10° WNW 20:04:06 41° SW 20:04:30 39° SSW
Cosmos 1943 3.2 20:01:04 20° S 20:04:48 55° ESE 20:10:21 10° NE
STARLINK-1246 3.8 20:02:05 10° W 20:06:11 69° NNW 20:07:11 48° NE
Meteor 2-10 4.1 20:01:29 10° SSW 20:06:51 82° WNW 20:12:28 10° N
SL-8 R/B 3.8 20:02:19 10° W 20:07:00 56° SSW 20:07:34 52° SSE
STARLINK-1201 3.7 20:05:37 10° W 20:08:41 52° NNW 20:08:41 52° NNW
STARLINK-1097 4.4 20:05:11 10° WNW 20:09:02 38° SW 20:09:16 38° SSW
ATLAS 2AS CENTAUR R/B 2.9 20:03:43 10° NW 20:11:29 71° NE 20:14:21 40° ESE
STARLINK-1224 3.8 20:09:14 10° W 20:13:18 66° NNW 20:13:58 55° NE
Cosmos 1340 Rocket 4.3 20:15:29 26° NE 20:15:29 26° NE 20:17:34 10° NNE
USA 234 3.2 20:07:56 10° ENE 20:14:31 88° SSE 20:21:05 10° WSW
STARLINK-1203 3.8 20:10:38 10° W 20:14:36 64° N 20:15:06 56° NNE
Cosmos 2154 Rocket 4.0 20:09:33 10° N 20:15:57 86° W 20:18:59 34° S
USA 245 4.0 20:15:18 49° SSE 20:16:47 89° WSW 20:22:46 10° NNW
STARLINK-1225 3.8 20:13:51 10° W 20:17:54 65° N 20:18:23 58° NNE
Resurs 01 Rocket 2.8 20:16:28 23° SSW 20:18:42 39° W 20:22:52 10° NNW
Cosmos 1328 4.1 20:16:02 10° NNW 20:20:01 63° W 20:20:25 58° SW
STARLINK-1233 4.4 20:18:47 10° W 20:21:02 37° NW 20:21:02 37° NW
Cosmos 921 Rocket 3.8 20:17:56 10° N 20:21:21 38° NE 20:21:21 38° NE
STARLINK-1212 4.4 20:19:16 10° W 20:21:27 36° NW 20:21:27 36° NW
SL-16 R/B 3.8 20:17:28 10° WSW 20:22:38 36° NW 20:27:51 10° NNE
STARLINK-1230 3.8 20:18:37 10° W 20:22:40 63° N 20:22:57 61° NNE
STARLINK-1105 4.4 20:19:41 10° W 20:21:54 36° NW 20:21:54 36° NW
Cosmos 2228 3.1 20:22:39 54° SW 20:23:30 73° WNW 20:27:50 10° N
Cosmos 967 Rocket 4.4 20:18:27 10° SSW 20:24:53 75° SE 20:31:23 10° NE
STARLINK-1243 3.9 20:23:27 10° W 20:27:30 62° N 20:27:36 62° N
Cosmos 1953 4.1 20:24:03 10° SW 20:27:35 30° WNW 20:31:10 10° N
Iridium 4 Rocket 4.3 20:26:00 10° N 20:28:55 31° NE 20:28:55 31° NE
Cosmos 962 Rocket 4.3 20:24:00 10° N 20:30:14 80° E 20:31:43 54° SSE
STARLINK-1236 4.0 20:28:15 10° W 20:32:12 61° NNW 20:32:12 61° NNW
Nadezhda 1 Rocket 4.1 20:29:47 20° SSW 20:34:26 76° W 20:40:51 10° N
SL-8 Rocket 4.0 20:29:55 10° N 20:36:10 62° ENE 20:37:01 57° ESE
ISS -1.3 20:34:22 10° W 20:35:39 19° WSW 20:35:39 19° WSW
Cosmos 2058 Rocket 3.2 20:42:38 71° N 20:42:38 71° N 20:46:42 10° N
STARLINK-1269 4.2 20:38:12 10° W 20:41:43 53° NW 20:41:43 53° NW
SPOT 5 2.9 20:44:26 61° N 20:44:26 61° N 20:48:08 10° NNW
Cosmos 614 Rocket 4.2 20:44:49 56° NE 20:44:49 56° NE 20:49:05 10° NNE
Cosmos 2366 rocket 4.0 20:37:54 10° N 20:43:58 57° ENE 20:44:18 56° E
Cosmos 1603 3.9 20:38:29 10° SW 20:44:06 67° WNW 20:49:43 10° NNE
STARLINK-1200 4.4 20:43:02 10° W 20:46:21 49° NW 20:46:21 49° NW
CZ-4C R/B 4.2 20:42:30 10° NW 20:47:54 28° NNE 20:53:34 12° ENE
CZ-2C R/B 4.0 20:43:44 10° N 20:48:29 37° WNW 20:53:11 10° SW
IGS 5A 4.1 20:49:01 52° W 20:49:01 52° W 20:52:46 10° NNW
ERS-1 Rocket 2.9 20:48:38 82° SW 20:48:42 83° WSW 20:53:47 10° NNW
Landsat 7 4.2 20:49:40 54° WSW 20:50:00 55° W 20:54:42 10° NNW
Cosmos 1980 Rocket 4.4 20:48:22 10° N 20:51:23 14° NNE 20:53:43 12° NE
Cosmos 1959 Rocket 4.4 20:53:08 10° N 20:59:31 74° E 20:59:53 72° ESE
Cosmos 1656 Rocket 4.3 20:55:59 10° NW 21:01:24 46° WSW 21:02:03 44° SW
Aureole 1 Rocket 4.2 21:01:51 33° SSW 21:05:45 88° WNW 21:12:12 10° NNE
CARTOSAT-1 4.4 21:07:29 48° NW 21:07:29 48° NW 21:10:50 10° NNW
COSMOS 2455 2.8 21:09:14 10° NW 21:15:09 83° NNE 21:15:09 83° NNE
In-Cosmos 22 Rocket 4.3 21:14:39 10° NNW 21:20:10 79° NW 21:20:10 79° NW
Cosmos 1461 4.3 21:18:00 10° NW 21:20:56 41° NW 21:20:56 41° NW
Cosmos 2369 Rocket 4.3 21:19:44 10° WNW 21:23:09 16° W 21:25:03 14° WSW
Cosmos 1821 Rocket 4.4 21:21:53 10° N 21:27:28 50° NE 21:27:28 50° NE
Cosmos 1763 Rocket 4.4 21:23:30 10° NNW 21:27:28 42° NNE 21:27:28 42° NNE
Cosmos 1656 4.5 21:23:50 10° NNW 21:28:47 43° NE 21:28:47 43° NE
NOSS 3-4 (A) 4.0 21:22:54 10° NW 21:29:42 57° SW 21:30:09 56° SW
NOSS 3-4 (C) 4.0 21:23:00 10° NW 21:29:48 57° SW 21:30:14 57° SW
Terra 2.8 21:32:46 44° NW 21:32:46 44° NW 21:36:20 10° NNW
ATLAS CENTAUR R/B 3.9 21:29:44 10° NNW 21:31:52 15° NNE 21:31:52 15° NNE
Meteor 2-12 Rocket 4.5 21:30:52 10° NNW 21:36:34 75° NW 21:36:34 75° NW
Cosmos 1818 4.3 21:39:11 47° N 21:39:11 47° N 21:43:17 10° NE
Cosmos 2218 Rocket 4.5 21:42:35 10° NNW 21:48:32 51° W 21:48:36 51° W
USA 234 3.8 21:51:00 10° ENE 21:57:20 54° NNW 22:03:39 10° W
ATLAS 2AS CENTAUR R/B 3.7 21:55:18 10° NW 22:01:48 36° WSW 22:01:48 36° WSW
Cosmos 1697 Rocket 3.6 22:05:55 10° NNW 22:10:12 43° NNE 22:10:12 43° NNE
SL-16 R/B 4.4 22:09:57 10° N 22:13:40 17° NNE 22:15:22 15° NE
Mayak 1.2 22:14:02 10° N 22:15:32 21° N 22:15:32 21° N
Cosmos 2322 Rocket 4.4 22:24:13 10° N 22:28:03 18° NNE 22:29:38 16° NE
Cosmos 1980 Rocket 3.4 22:31:29 10° NNW 22:35:28 38° NNE 22:35:28 38° NNE
CZ-4C R/B 3.3 22:31:17 10° NW 22:37:56 53° NE 22:38:44 50° ENE
Cosmos 2082 Rocket 4.1 23:00:52 21° NE 23:00:52 21° NE 23:02:55 10° NE
ATLAS 5 CENTAUR R/B 3.9 23:20:05 24° NNE 23:20:05 24° NNE 23:22:36 10° NE
Cosmos 1833 Rocket 4.0 23:28:31 36° NNE 23:28:31 36° NNE 23:31:44 10° NNE
CZ-2D R/B 4.5 23:30:57 10° NE 23:32:53 14° ENE 23:32:53 14° ENE
Resurs 1-4 Rocket 4.5 23:32:27 10° NE 23:34:06 14° ENE 23:34:06 14° ENE
USA 234 3.9 23:33:31 10° E 23:39:49 52° N 23:46:07 10° WNW
SL-16 R/B 3.5 23:52:44 41° ENE 23:52:54 41° ENE 23:58:40 10° N
